Location: *
(47.0333°S, 164.4333°W)
Time: 03:52:23
(UTC+00:00)

Daily predictions for brighter satellites

Satellite Brightness Start Highest point End
(mag) Time Altitude Azimuth Time Altitude Azimuth Time Altitude Azimuth
STARLINK-1299 4.3 03:44:41 10° NW 03:48:49 46° NE 03:52:59 10° ESE
FENGYUN 3A 3.8 03:43:31 10° SSE 03:48:57 58° E 03:54:17 10° N
Cosmos 1844 Rocket 2.9 03:43:31 10° SSW 03:49:15 86° WNW 03:54:58 10° NNE
Cosmos 1743 Rocket 3.7 03:45:09 10° N 03:49:27 55° E 03:53:52 10° SSE
STARLINK-1306 4.4 03:45:31 10° NNW 03:49:32 42° NE 03:53:35 10° ESE
STARLINK-34 3.0 03:46:30 10° WNW 03:49:45 85° NE 03:53:02 10° ESE
Cosmos 1151 Rocket 4.0 03:45:38 10° SSW 03:49:54 53° W 03:54:04 10° N
STARLINK-1301 3.3 03:46:27 10° WNW 03:50:01 73° SSW 03:53:35 10° ESE
STARLINK-1293 3.0 03:47:03 10° WNW 03:50:15 74° SSW 03:53:28 10° ESE
Okean O Rocket 3.3 03:48:38 10° SE 03:51:14 15° E 03:53:49 10° NE
BREEZE-M DEB (TANK) 1.8 03:48:16 10° W 03:51:22 50° S 03:53:32 10° ESE
STARLINK-55 3.5 03:48:16 10° W 03:51:28 50° SSW 03:54:42 10° SE
STARLINK-1255 3.0 03:48:51 10° WNW 03:52:01 72° SSW 03:55:14 10° ESE
Cosmos 405 4.2 03:49:35 10° SSE 03:52:31 23° ESE 03:55:24 10° NE
STARLINK-1281 4.4 03:49:02 10° NNW 03:52:59 41° NE 03:56:57 10° ESE
STARLINK-1307 3.3 03:49:46 10° WNW 03:53:20 76° SSW 03:56:55 10° ESE
METEOR-M 4.3 03:48:11 10° SSE 03:53:34 58° E 03:58:51 10° N
Cosmos 773 Rocket 4.2 03:48:42 10° NNW 03:53:56 76° WSW 03:59:11 10° SSE
Cosmos 1825 4.4 03:51:48 10° NW 03:55:03 26° WSW 03:58:21 10° SSW
STARLINK-1290 3.3 03:52:31 10° WNW 03:56:04 73° SSW 03:59:39 10° ESE
Sich 1 4.3 03:53:30 10° NE 03:56:59 23° E 04:00:30 10° SE
STARLINK-29 3.2 03:53:47 10° SW 03:57:04 52° SSE 04:00:19 10° E
Cosmos 1484 Rocket 2.8 03:53:16 10° SSE 03:57:12 87° ENE 04:01:01 10° NNW
STARLINK-1310 4.3 03:53:57 10° NNW 03:57:56 44° NE 04:01:58 10° ESE
Cosmos 2322 3.8 03:52:36 10° N 03:58:12 62° ENE 04:03:51 10° SSE
ATLAS 2AS CENTAUR R/B 3.9 03:53:28 10° SSW 03:58:14 21° SSE 04:03:12 10° ESE
STARLINK-1297 3.4 03:55:10 10° WNW 03:58:43 70° SSW 04:02:17 10° ESE
STARLINK-26 3.8 03:56:01 10° W 03:59:26 48° SSW 04:02:53 10° SE
Cosmos 2360 Rocket 2.5 03:55:38 10° NNW 04:01:20 74° WSW 04:07:05 10° SSE
STARLINK-28 3.7 03:58:45 10° W 04:01:54 43° SSW 04:05:04 10° SE
CZ-2C R/B 3.7 03:57:46 10° S 04:02:08 38° WSW 04:06:25 10° NW
STARLINK-1319 4.2 03:58:51 10° NW 04:02:53 48° NE 04:06:57 10° ESE
STARLINK-41 3.5 04:01:02 10° W 04:04:11 48° SSW 04:07:16 11° SE
Cosmos 2056 Rocket 4.4 04:00:19 10° S 04:04:59 29° SE 04:09:33 10° ENE
STARLINK-48 3.5 04:01:18 10° WNW 04:05:15 83° NNE 04:09:07 11° ESE
Cosmos 1346 Rocket 3.2 04:01:48 10° NNE 04:05:35 44° E 04:09:26 10° SSE
PSLV R/B 4.3 04:01:49 10° SSE 04:05:52 43° E 04:09:48 10° N
Cosmos 2333 4.3 04:01:07 10° NNW 04:06:52 69° ENE 04:12:41 10° SSE
SJ-12 4.0 04:02:53 10° SSE 04:07:04 65° E 04:11:10 10° N
STARLINK-1277 4.1 04:03:46 10° NW 04:07:50 52° NE 04:11:43 11° ESE
Cosmos 1980 Rocket 4.5 04:07:12 10° WSW 04:10:19 15° SW 04:13:26 10° S
STARLINK-1276 4.0 04:08:42 10° NW 04:12:49 56° NE 04:16:30 13° ESE
Meteor 2-20 4.5 04:07:06 10° S 04:13:22 68° E 04:19:32 10° NNE
CZ-2C R/B 4.4 04:12:08 11° ESE 04:13:48 12° SE 04:15:50 10° SSE
CZ-4B R/B 3.3 04:10:13 10° S 04:14:35 78° WSW 04:19:04 10° NNW
Meteor PRIRODA 3.7 04:12:11 10° SSE 04:15:57 89° ENE 04:19:41 10° NNW
STARLINK-1291 3.5 04:12:47 10° W 04:16:08 53° SSW 04:18:57 14° SE
STARLINK-1317 3.7 04:13:04 10° W 04:16:37 52° SSW 04:19:38 14° SE
SKYMED 2 3.8 04:12:55 10° N 04:17:18 76° WNW 04:21:45 10° SSW
STARLINK-1305 3.9 04:13:39 10° NW 04:17:47 60° NE 04:21:18 14° ESE
STARLINK-1264 3.6 04:14:40 10° W 04:18:02 52° SSW 04:20:47 14° SE
STARLINK-33 3.9 04:16:32 10° W 04:19:38 39° SSW 04:22:07 14° SE
STARLINK-1267 3.6 04:16:36 10° W 04:19:57 51° SSW 04:22:39 15° SE
STARLINK-1278 3.8 04:16:48 10° NW 04:21:06 74° NNE 04:24:39 15° ESE
STARLINK-1272 3.6 04:18:29 10° W 04:21:51 50° SSW 04:24:28 15° SE
STARLINK-64 3.2 04:18:48 10° WNW 04:22:25 87° NNE 04:25:13 16° ESE
STARLINK-1262 3.8 04:18:36 10° NW 04:22:45 65° NE 04:26:05 16° ESE
STARLINK-1280 3.8 04:18:38 10° NW 04:22:57 75° NNE 04:26:25 16° ESE
Cosmos 1666 Rocket 4.4 04:19:25 10° NNE 04:23:12 29° E 04:27:00 10° SSE
Cosmos 1340 2.9 04:19:34 10° NNW 04:23:23 74° WSW 04:27:16 10° S
Cosmos 1844 4.4 04:18:12 10° SW 04:23:42 58° WNW 04:29:09 10° N
STARLINK-1207 3.7 04:20:24 10° W 04:23:46 49° SSW 04:26:18 16° SE
Cosmos 2219 Rocket 2.3 04:19:19 10° NNW 04:24:57 67° ENE 04:30:40 10° SSE
ALOS 2.7 04:20:26 10° S 04:25:10 66° WSW 04:29:50 10° NNW
Iridium 4 Rocket 4.4 04:20:07 10° NNW 04:25:25 53° W 04:30:21 10° S
Cosmos 1633 Rocket 4.1 04:21:45 10° NE 04:25:26 26° E 04:29:10 10° SSE
H-2A R/B 2.5 04:21:20 10° SSE 04:25:36 82° WSW 04:29:37 10° NNW
STARLINK-1266 3.7 04:22:23 10° W 04:25:43 48° SSW 04:28:11 17° SE
CZ-4B DEB 4.3 04:21:49 10° SSE 04:27:18 58° ENE 04:32:45 10° N
STARLINK-1300 3.7 04:23:31 10° NW 04:27:42 70° NE 04:30:50 17° ESE
STARLINK-1284 3.7 04:24:21 10° W 04:27:42 47° SSW 04:30:05 17° SE
Cosmos 1680 Rocket 3.7 04:22:58 10° N 04:28:05 51° ENE 04:33:15 10° SSE
STARLINK-66 4.0 04:25:18 10° W 04:28:23 36° SSW 04:30:29 17° SE
YAOGAN 6 4.4 04:28:41 15° E 04:28:41 15° E 04:30:35 10° NE
Shenzhou-11 Module 3.5 04:27:22 10° NW 04:29:29 22° NNE 04:31:02 14° ENE
STARLINK-1258 3.8 04:26:17 10° W 04:29:37 46° SSW 04:31:56 18° SE
Cosmos 923 Rocket 4.1 04:25:31 10° N 04:30:52 71° ENE 04:36:16 10° SSE
Meteor 2-6 Rocket 4.2 04:25:35 10° S 04:31:07 87° ESE 04:36:42 10° N
STARLINK-1292 3.8 04:28:16 10° W 04:31:35 45° SSW 04:33:49 18° SE
STARLINK-1295 3.7 04:28:31 10° NW 04:32:42 75° NNE 04:35:39 19° ESE
STARLINK-52 2.9 04:29:58 10° WSW 04:33:17 80° SSE 04:36:00 14° ENE
STARLINK-1274 3.8 04:30:17 10° W 04:33:36 44° SSW 04:35:45 19° SE
STARLINK-1338 3.8 04:30:53 10° SW 04:34:23 41° SSE 04:36:25 21° ESE
PAYLOAD B 4.3 04:28:53 10° SSE 04:34:23 57° ENE 04:39:49 10° N
CZ-4C R/B 4.3 04:29:36 10° WSW 04:34:43 20° SSW 04:39:18 10° SSE
STARLINK-1289 3.9 04:32:20 10° W 04:35:39 43° SSW 04:37:43 20° SE
Cosmos 1782 4.1 04:32:19 10° SSW 04:36:11 43° W 04:40:01 10° NNW
Cosmos 1500 Rocket 4.4 04:32:15 10° NNW 04:36:33 52° WSW 04:40:53 10° S
FALCON 9 DEB 3.2 04:33:40 10° WSW 04:37:13 64° SSE 04:39:35 19° ENE
STARLINK-1303 3.9 04:34:18 10° W 04:37:37 42° SSW 04:39:37 21° SE
STARLINK-1287 3.6 04:33:27 10° NW 04:37:39 80° NNE 04:40:24 21° ESE
Cosmos 1862 3.3 04:34:53 10° N 04:38:55 73° E 04:43:02 10° SSE
STARLINK-75 4.1 04:36:27 10° W 04:39:30 34° SSW 04:41:08 21° SE
STARLINK-1312 3.9 04:36:19 10° W 04:39:37 42° SSW 04:41:32 21° SE
STARLINK-1371 3.8 04:36:16 10° WSW 04:39:48 43° SSE 04:41:37 24° ESE
Cosmos 1980 4.4 04:34:57 10° N 04:40:03 35° ENE 04:43:46 17° SE
Cosmos 2322 Rocket 4.1 04:37:23 10° W 04:42:02 25° SW 04:46:44 10° S
SL-4 R/B 3.2 04:38:52 10° WSW 04:42:22 39° NW 04:46:05 10° NE
STARLINK-1341 3.8 04:38:56 10° WSW 04:42:31 44° SSE 04:44:13 25° ESE
STARLINK-1374 3.7 04:41:32 10° WSW 04:45:07 45° SSE 04:46:42 27° ESE
Envisat 3.7 04:41:07 11° SSE 04:45:35 33° E 04:50:11 10° NNE
STARLINK-58 3.7 04:43:02 10° W 04:46:10 43° SSW 04:47:38 25° SE
NOSS 0 Rocket 4.2 04:40:28 10° N 04:46:26 49° ENE 04:51:20 16° SE
Cosmos 1238 Rocket 3.5 04:42:23 10° NNE 04:46:27 35° E 04:48:23 22° SE
Cosmos 1805 Rocket 3.6 04:42:23 10° N 04:46:49 84° W 04:51:19 10° S
STARLINK-1302 3.6 04:43:24 10° WNW 04:47:36 90° SW 04:49:59 26° ESE
STARLINK-1339 3.7 04:44:13 10° WSW 04:47:49 46° SSE 04:49:19 29° ESE
STARLINK-22 4.1 04:46:02 10° W 04:49:06 35° SSW 04:50:24 25° SSE
STARLINK-1377 3.6 04:46:33 10° WSW 04:50:09 47° SSE 04:51:30 31° ESE
USA 234 3.7 04:47:01 16° SE 04:52:20 58° SSW 04:58:47 10° WNW
STARLINK-1273 3.6 04:48:23 10° WNW 04:52:36 85° SSW 04:54:46 28° ESE
STARLINK 1040 4.2 04:50:27 10° SW 04:52:38 21° S 04:52:48 21° S
STARLINK-1353 3.6 04:49:14 10° WSW 04:52:50 48° SSE 04:54:05 33° ESE
Meteor 1-27 Rocket 3.8 04:46:55 10° S 04:52:50 71° ESE 04:58:47 10° NNE
Cosmos 2173 Rocket 4.5 04:47:17 10° NNE 04:52:56 36° E 04:58:33 10° SSE
Cosmos 1812 2.7 04:49:48 10° S 04:53:46 88° E 04:57:39 10° N
STARLINK-1320 3.2 04:51:08 10° SW 04:54:17 49° SSE 04:54:59 40° ESE
STARLINK-1322 3.2 04:51:27 10° SW 04:54:36 49° SSE 04:55:18 40° ESE
STARLINK-80 4.3 04:51:08 10° W 04:54:47 39° SSW 04:56:25 26° SE
STARLINK-1324 3.2 04:51:49 10° SW 04:54:57 50° SSE 04:55:38 41° ESE
STARLINK-1294 3.2 04:52:10 10° SW 04:55:17 50° SSE 04:55:55 41° ESE
STARLINK-43 4.4 04:51:59 10° WSW 04:55:25 32° S 04:56:34 26° SE
STARLINK-1261 3.2 04:52:28 10° SW 04:55:37 50° SSE 04:56:16 41° ESE
COSMOS 2428 2.8 04:49:57 10° NNW 04:55:44 82° WSW 05:01:20 11° SSE
STARLINK-1375 3.6 04:52:15 10° WSW 04:55:53 50° SSE 04:57:02 35° ESE
STARLINK-1325 3.2 04:52:48 10° SW 04:55:57 50° SSE 04:56:35 42° ESE
STARLINK-1333 3.2 04:53:11 10° SW 04:56:20 51° SSE 04:56:57 42° ESE
Cosmos 1461 2.6 04:52:35 10° SSW 04:56:37 73° SE 05:00:01 13° NE
STARLINK-1334 3.2 04:53:30 10° SW 04:56:38 51° SSE 04:57:16 43° ESE
Helios 1A Rocket 3.9 04:56:55 26° ENE 04:56:55 26° ENE 05:00:09 10° NNE
STARLINK-1326 3.1 04:53:51 10° SW 04:57:00 51° SSE 04:57:35 43° ESE
STARLINK-1323 3.1 04:54:09 10° SW 04:57:18 51° SSE 04:57:53 44° ESE
STARLINK-1288 3.6 04:53:21 10° WNW 04:57:33 80° SSW 04:59:32 31° SE
STARLINK-1349 3.1 04:54:32 10° SW 04:57:41 52° SSE 04:58:15 44° ESE
STARLINK-81 4.3 04:54:12 10° NNW 04:57:49 36° NE 04:58:52 30° ENE
STARLINK-1336 3.1 04:54:51 10° SW 04:58:00 52° SSE 04:58:33 44° ESE
STARLINK-1350 3.5 04:54:37 10° WSW 04:58:14 51° SSE 04:59:17 38° ESE
STARLINK-1331 3.1 04:55:13 10° SW 04:58:23 52° SSE 04:58:55 45° ESE
STARLINK-1344 3.1 04:55:34 10° SW 04:58:44 52° SSE 04:59:15 45° ESE
STARLINK-1343 3.1 04:55:51 10° SW 04:59:00 52° SSE 04:59:31 46° ESE
STARLINK-1346 3.1 04:56:16 10° SW 04:59:23 52° SSE 04:59:51 47° ESE
STARLINK-54 4.1 04:55:48 10° NNW 04:59:29 41° NE 05:00:34 33° ENE
STARLINK-1328 3.1 04:56:32 10° SW 04:59:41 53° SSE 05:00:11 47° ESE
STARLINK-1354 3.1 04:56:52 10° SW 05:00:01 53° SSE 05:00:29 47° ESE
Cosmos 1459 Rocket 4.4 04:54:22 10° NNE 05:00:07 41° E 05:06:02 10° SSE
STARLINK-1347 3.1 04:57:13 10° SW 05:00:23 53° SSE 05:00:50 48° ESE
STARLINK-1357 3.1 04:57:33 10° SW 05:00:43 54° SSE 05:01:09 48° ESE
STARLINK-77 4.2 04:57:17 10° NNW 05:00:56 38° NE 05:01:54 32° ENE
STARLINK-1352 3.5 04:57:22 10° WSW 05:00:59 53° SSE 05:01:54 40° ESE
STARLINK-1335 3.1 04:57:57 10° SW 05:01:06 54° SSE 05:01:32 49° ESE
STARLINK-1327 3.0 04:58:12 10° SW 05:01:23 54° SSE 05:01:48 49° ESE
ATLAS 5 CENTAUR R/B 3.1 04:54:50 10° N 05:01:31 43° ENE 05:04:51 26° ESE
STARLINK-1340 3.0 04:58:33 10° SW 05:01:43 54° SSE 05:02:08 49° SE
STARLINK-1356 3.0 04:58:54 10° SW 05:02:04 55° SSE 05:02:28 50° SE
STARLINK-1345 3.0 04:59:14 10° SW 05:02:24 55° SSE 05:02:47 50° SE
STARLINK-1308 3.7 04:58:22 10° WNW 05:02:35 75° SSW 05:04:21 34° SE
STARLINK-1355 3.0 04:59:34 10° WSW 05:02:44 55° SSE 05:03:06 51° SE
STARLINK-1321 3.0 04:59:56 10° WSW 05:03:06 55° SSE 05:03:27 51° SE
STARLINK-1010 4.4 04:59:15 10° NNW 05:03:14 39° NE 05:04:24 32° ENE
STARLINK-1358 3.0 05:00:15 10° WSW 05:03:25 56° SSE 05:03:45 52° SE
STARLINK-1283 4.4 05:00:02 10° W 05:03:39 37° S 05:04:52 29° SSE
STARLINK-1368 3.4 05:00:06 10° WSW 05:03:45 55° SSE 05:04:33 44° ESE
STARLINK-1332 3.0 05:00:39 10° WSW 05:03:49 56° SSE 05:04:08 53° SE
Cosmos 1624 Rocket 3.9 04:58:39 10° SSW 05:03:58 79° ESE 05:09:15 10° NNE
STARLINK-1348 3.0 05:00:56 10° WSW 05:04:07 56° SSE 05:04:25 53° SE
STARLINK-1330 3.0 05:01:15 10° WSW 05:04:25 56° SSE 05:04:43 53° SE
STARLINK-1363 3.0 05:01:39 10° WSW 05:04:50 57° SSE 05:05:07 54° SE
STARLINK-1311 4.1 05:02:06 10° WSW 05:04:50 29° S 05:05:12 28° S
Lacrosse 5 rocket 3.1 05:01:57 10° NNE 05:04:38 18° NE 05:04:38 18° NE
STARLINK-1025 4.4 05:01:09 10° NNW 05:05:00 37° NE 05:05:56 32° ENE
STARLINK-1337 3.0 05:01:57 10° WSW 05:05:07 57° SSE 05:05:23 54° SE
STARLINK-1342 2.9 05:02:16 10° WSW 05:05:27 57° SSE 05:05:42 55° SE
STARLINK-1364 2.9 05:02:36 10° WSW 05:05:46 58° SSE 05:06:01 55° SE
STARLINK-79 4.0 05:02:08 10° NNW 05:05:50 42° NE 05:06:37 37° ENE
STARLINK-1376 2.9 05:02:58 10° WSW 05:06:09 58° SSE 05:06:22 56° SE
CZ-4B R/B 3.1 05:00:56 10° SSE 05:06:27 76° ENE 05:11:59 10° N
STARLINK-1360 2.9 05:03:17 10° WSW 05:06:28 58° SSE 05:06:40 56° SE
STARLINK-1369 3.4 05:02:52 10° WSW 05:06:31 56° SSE 05:07:12 47° ESE
STARLINK-1361 2.9 05:03:36 10° WSW 05:06:47 58° SSE 05:06:59 57° SE
STARLINK-1367 2.9 05:03:59 10° WSW 05:07:07 59° SSE 05:07:16 58° SE
STARLINK-78 4.0 05:03:44 10° NNW 05:07:27 43° NE 05:08:11 38° ENE
STARLINK-1366 2.9 05:04:21 10° WSW 05:07:32 59° SSE 05:07:42 58° SE
Radarsat Rocket 4.4 04:59:43 10° SSE 05:07:37 69° ENE 05:14:27 10° N
Cosmos 2237 Rocket 2.3 05:02:31 10° N 05:08:02 53° ENE 05:11:03 26° SE
Cosmos 1943 Rocket 3.7 05:04:22 10° S 05:07:26 18° SSE 05:07:26 18° SSE
Cosmos 371 Rocket 3.9 05:04:23 10° S 05:08:49 33° ESE 05:08:53 33° ESE
Cosmos 1707 Rocket 3.8 05:04:32 10° SSW 05:09:03 71° W 05:13:26 10° N
STARLINK-57 3.9 05:05:27 10° NW 05:09:11 46° NE 05:09:54 41° ENE
STARLINK-61 3.4 05:05:16 10° WNW 05:09:15 86° SSW 05:10:27 44° ESE
STARLINK-1372 3.4 05:05:39 10° WSW 05:09:19 58° SSE 05:09:54 50° ESE
Cosmos 2369 Rocket 3.9 05:06:05 10° S 05:08:42 15° SSE 05:08:42 15° SSE
STARLINK-1017 4.3 05:06:00 10° NNW 05:09:55 40° NE 05:10:41 36° ENE
CORIOLIS 4.4 05:05:50 16° SSE 05:10:01 46° E 05:15:15 10° N
STARLINK-49 3.9 05:07:00 10° NW 05:10:45 45° NE 05:11:22 41° ENE
STARLINK-1316 4.1 05:08:04 10° WSW 05:10:58 30° S 05:11:15 30° S
STARLINK-42 4.3 05:08:04 10° WSW 05:11:00 29° S 05:11:15 28° S
STARLINK-1257 4.1 05:09:01 10° WSW 05:11:54 30° S 05:12:08 30° S
Cosmos 1470 Rocket 3.9 05:08:02 10° NNE 05:12:19 43° E 05:13:12 38° ESE
STARLINK-27 3.8 05:08:35 10° NW 05:12:20 47° NE 05:12:53 43° ENE
STARLINK-1378 3.3 05:08:41 10° WSW 05:12:24 61° SSE 05:12:53 54° ESE
STARLINK-1304 3.8 05:08:21 10° WNW 05:12:32 68° SSW 05:13:54 40° SE
STARLINK-1256 4.2 05:09:55 10° WSW 05:12:48 30° S 05:13:00 30° S
STARLINK-1213 4.2 05:10:49 10° WSW 05:13:43 30° S 05:13:52 30° S
STARLINK-74 3.8 05:10:13 10° NW 05:13:59 48° NE 05:14:28 45° ENE
STARLINK-1263 4.2 05:11:44 10° WSW 05:14:37 30° S 05:14:44 30° S
STARLINK-1329 3.3 05:10:58 10° WSW 05:14:39 62° SSE 05:15:02 58° ESE
STARLINK-1286 3.9 05:10:38 10° WNW 05:14:51 64° SSW 05:16:08 41° SE
STARLINK-1023 4.1 05:10:55 10° NNW 05:14:53 43° NE 05:15:28 40° ENE
STARLINK-1379 3.3 05:11:15 10° WSW 05:14:55 62° SSE 05:15:16 58° SE
STARLINK-1259 4.2 05:12:38 10° WSW 05:15:31 30° S 05:15:35 30° S
STARLINK-39 3.7 05:11:49 10° NW 05:15:36 49° NE 05:16:02 47° ENE
NOAA 12 4.3 05:12:37 22° SE 05:15:49 49° E 05:20:55 10° N
STARLINK-1265 4.2 05:13:11 10° WSW 05:16:01 29° S 05:16:03 29° S
STARLINK-1285 4.2 05:13:32 10° WSW 05:16:25 29° S 05:16:28 29° S
STARLINK-1268 4.2 05:14:11 10° WSW 05:17:02 29° S 05:17:02 29° S
STARLINK-31 3.7 05:13:27 10° NW 05:17:14 51° NE 05:17:37 49° ENE
STARLINK-1362 3.3 05:14:09 10° WSW 05:17:53 65° SSE 05:18:11 62° SE
STARLINK-1365 3.2 05:14:22 10° WSW 05:18:07 67° SSE 05:18:25 63° ESE
STARLINK-1296 4.3 05:15:23 10° WSW 05:18:13 29° S 05:18:13 29° S
Cosmos 1371 Rocket 4.3 05:13:34 10° SSW 05:18:59 71° WNW 05:24:20 10° N
STARLINK-69 3.5 05:15:12 10° NW 05:19:00 57° NE 05:19:23 54° ENE
STARLINK-1260 4.3 05:16:17 10° WSW 05:19:04 29° SSW 05:19:04 29° SSW
ATLAS CENTAUR R/B 3.5 05:16:12 10° SSW 05:18:35 17° SSE 05:18:35 17° SSE
STARLINK-1007 4.0 05:15:50 10° NW 05:19:51 46° NE 05:20:16 45° ENE
STARLINK-1318 4.3 05:17:13 10° WSW 05:19:57 29° SSW 05:19:57 29° SSW
STARLINK-21 3.6 05:16:43 10° NW 05:20:31 55° NE 05:20:47 53° NE
STARLINK-1373 3.2 05:16:57 10° WSW 05:20:41 67° SSE 05:20:51 66° SE
AQUARIUS 4.1 05:18:30 28° SSE 05:20:51 65° E 05:25:21 10° N
STARLINK-1275 4.3 05:18:05 10° WSW 05:20:46 29° SSW 05:20:46 29° SSW
STARLINK-1309 4.4 05:18:59 10° WSW 05:21:39 29° SSW 05:21:39 29° SSW
STARLINK-45 3.5 05:18:29 10° NW 05:22:19 61° NE 05:22:35 59° ENE
STARLINK-1282 4.4 05:19:55 10° WSW 05:22:32 28° SSW 05:22:32 28° SSW
Cosmos 1862 Rocket 3.5 05:18:27 10° S 05:23:04 78° E 05:27:35 10° NNE
STARLINK-1390 3.2 05:19:37 10° WSW 05:23:20 70° SSE 05:23:22 70° SSE
SL-16 R/B 3.3 05:19:05 10° NNE 05:22:27 25° NE 05:22:27 25° NE
STARLINK-1313 4.5 05:21:01 10° WSW 05:23:32 27° SSW 05:23:32 27° SSW
STARLINK-70 3.5 05:20:04 10° NW 05:23:55 61° NE 05:24:06 60° NE
NOSS 3-4 (A) 4.2 05:17:06 10° SW 05:24:02 41° SE 05:25:49 35° ESE
STARLINK-62 4.3 05:21:08 10° WSW 05:23:57 31° SSW 05:23:57 31° SSW
NOSS 3-4 (C) 4.2 05:17:13 10° SW 05:24:07 40° SSE 05:25:52 35° ESE
STARLINK-1048 3.9 05:20:45 10° NW 05:24:49 50° NE 05:25:03 49° NE
STARLINK-1279 4.5 05:22:00 10° WSW 05:24:28 27° SSW 05:24:28 27° SSW
STARLINK-76 3.5 05:21:36 10° NW 05:25:26 59° NE 05:25:32 59° NE
STARLINK-1029 4.2 05:22:29 10° W 05:25:14 33° SSW 05:25:14 33° SSW
STARLINK-1298 4.5 05:22:38 10° WSW 05:25:07 28° SSW 05:25:07 28° SSW
STARLINK-71 3.5 05:21:36 10° NW 05:25:38 64° NE 05:25:57 61° ENE
Cosmos 158 Rocket 4.4 05:20:36 10° NNW 05:25:46 64° WSW 05:30:07 16° SSE
STARLINK-34 4.3 05:23:06 10° WSW 05:25:50 31° SSW 05:25:50 31° SSW
STARLINK-1293 4.5 05:23:35 10° WSW 05:26:02 27° SSW 05:26:02 27° SSW
Cosmos 1802 Rocket 4.1 05:20:12 10° NNE 05:26:26 53° E 05:32:43 10° SSE
STARLINK-23 3.5 05:23:14 10° NW 05:27:04 61° NE 05:27:06 61° NE
STARLINK-1301 4.4 05:24:16 10° WSW 05:27:22 31° S 05:27:22 31° S
Okean O Rocket 2.0 05:23:38 10° S 05:28:00 64° WSW 05:32:25 10° NNW
H-2A R/B 3.5 05:25:18 14° S 05:28:29 54° WSW 05:32:18 10° NNW
Cosmos 2333 Rocket 3.3 05:23:04 10° NW 05:28:34 43° SW 05:33:32 13° SSE
STARLINK-32 3.5 05:24:51 10° NW 05:28:40 63° NNE 05:28:40 63° NNE
STARLINK-1299 4.1 05:24:36 10° W 05:28:51 53° SSW 05:29:38 46° SSE
IRS-1C Rocket 4.3 05:28:07 44° ESE 05:28:56 48° E 05:34:02 10° N
Cosmos 1725 Rocket 4.4 05:23:33 10° NNE 05:29:00 38° E 05:29:00 38° E
STARLINK-1306 4.0 05:25:06 10° W 05:29:18 55° SSW 05:30:00 48° SSE
STARLINK-1049 3.8 05:25:40 10° NW 05:29:46 54° NE 05:29:49 54° NE
Radarsat 4.5 05:26:38 21° SSE 05:30:12 71° ENE 05:35:26 10° N
STARLINK-40 3.5 05:26:32 10° NW 05:30:18 64° NNE 05:30:18 64° NNE
STARLINK-1307 4.5 05:27:36 10° WSW 05:30:38 31° SSW 05:30:38 31° SSW
Cosmos 2278 Rocket 2.7 05:25:52 10° SSW 05:31:31 62° WNW 05:37:06 10° N
STARLINK-44 3.5 05:28:06 10° NW 05:31:48 65° NNE 05:31:48 65° NNE
STARLINK-1281 4.0 05:28:22 10° W 05:32:31 55° SSW 05:33:02 51° S
STARLINK-37 3.4 05:29:55 10° NW 05:33:38 70° N 05:33:38 70° N
NOSS 3-3 (A) 4.5 05:25:48 10° NNW 05:34:03 68° ENE 05:37:39 34° SE
NOSS 3-3 (C) 4.5 05:25:55 10° NNW 05:34:09 67° ENE 05:37:42 35° SE
STARLINK-1051 3.8 05:30:37 10° NW 05:34:37 58° NNE 05:34:37 58° NNE
STARLINK-36 3.5 05:31:21 10° NW 05:34:57 66° N 05:34:57 66° N
SMAP 3.1 05:32:36 21° SSE 05:35:45 84° WSW 05:40:27 10° NNW
STARLINK-68 3.5 05:33:12 10° NW 05:36:47 71° NNW 05:36:47 71° NNW
STARLINK-1310 4.0 05:33:23 10° W 05:37:31 53° SSW 05:37:49 51° S
STARLINK-63 3.6 05:34:47 10° NW 05:38:18 68° NNW 05:38:18 68° NNW
STARLINK-35 3.7 05:36:18 10° NW 05:39:42 64° NNW 05:39:42 64° NNW
STARLINK-51 3.7 05:37:59 10° NW 05:41:22 63° NNW 05:41:22 63° NNW
STARLINK-1319 4.1 05:38:24 10° W 05:42:31 51° SSW 05:42:36 50° SSW
STARLINK-30 3.8 05:39:37 10° NW 05:42:55 62° NW 05:42:55 62° NW
FengYun 1-2 T 4.2 05:43:33 55° E 05:43:33 55° E 05:48:59 10° N
STARLINK-1028 3.9 05:40:32 10° NW 05:44:12 61° N 05:44:12 61° N
STARLINK-72 3.8 05:41:19 10° NW 05:44:35 60° NW 05:44:35 60° NW
Cosmos 2056 Rocket 4.5 05:42:12 10° SSW 05:47:22 47° WNW 05:52:23 10° N
STARLINK-1277 4.3 05:43:24 10° W 05:47:22 48° SSW 05:47:22 48° SSW
STARLINK-59 4.0 05:44:39 10° WNW 05:47:48 57° WNW 05:47:48 57° WNW
Tsikada Rocket 4.1 05:42:41 10° S 05:48:36 51° ESE 05:48:36 51° ESE
STARLINK-1021 4.0 05:45:28 10° NW 05:48:58 58° NNW 05:48:58 58° NNW
STARLINK-56 4.1 05:46:13 10° WNW 05:49:17 54° NW 05:49:17 54° NW
ATLAS 2AS CENTAUR R/B 2.8 05:44:16 10° SSW 05:50:38 51° SE 05:51:07 50° SE
STARLINK-73 4.1 05:47:51 10° WNW 05:50:52 52° WNW 05:50:52 52° WNW
STARLINK-1276 4.4 05:48:25 10° W 05:52:09 46° SSW 05:52:09 46° SSW
CZ-2C R/B 2.7 05:53:39 62° SE 05:53:39 62° SE 05:58:31 10° S
STARLINK-38 4.2 05:49:31 10° WNW 05:52:27 50° WNW 05:52:27 50° WNW
STARLINK-1019 4.2 05:50:27 10° NW 05:53:46 54° NW 05:53:46 54° NW
STARLINK-24 4.1 05:50:55 10° WNW 05:54:10 56° WNW 05:54:10 56° WNW
STARLINK-65 4.3 05:51:09 10° WNW 05:54:03 48° WNW 05:54:03 48° WNW
STARLINK-53 4.4 05:53:04 10° WNW 05:55:57 47° WNW 05:55:57 47° WNW
STARLINK-1012 4.4 05:55:24 10° WNW 05:58:32 49° NW 05:58:32 49° NW
Cosmos 1818 3.8 05:54:16 10° NW 05:59:38 65° SW 06:00:42 53° S
YAOGAN 6 4.0 06:03:03 38° WNW 06:03:03 38° WNW 06:05:45 10° NW
Meteor 1-25 Rocket 4.1 06:01:09 10° NNW 06:06:45 83° W 06:07:53 59° S
Meteor 1-18 Rocket 4.1 06:02:39 10° S 06:08:02 78° S 06:08:02 78° S
Cosmos 2100 Rocket 4.4 06:02:38 10° NNW 06:08:48 61° WSW 06:15:00 10° S
Cosmos 2219 Rocket 4.1 06:04:42 10° WNW 06:09:25 26° SW 06:13:00 15° S
Cosmos 1452 Rocket 3.8 06:12:37 10° SSW 06:17:28 66° WSW 06:17:28 66° WSW
Envisat 4.4 06:21:20 18° S 06:24:38 37° WSW 06:29:18 10° NW
Cosmos 2061 Rocket 4.2 06:19:16 10° NNW 06:25:33 71° W 06:28:12 37° S
CZ-4C R/B 4.2 06:21:12 10° SSW 06:24:38 19° S 06:24:38 19° S
Cosmos 2297 4.2 06:25:58 10° SSW 06:30:33 56° SW 06:30:33 56° SW
USA 234 4.1 06:34:22 38° S 06:34:39 38° S 06:40:38 10° WSW
Cosmos 2016 Rocket 4.4 06:29:54 10° NNW 06:36:08 60° WSW 06:39:15 31° S
Lacrosse 5 rocket 4.0 06:39:12 10° NW 06:40:19 18° NW 06:40:19 18° NW
ATLAS 5 CENTAUR R/B 3.1 06:39:20 10° WNW 06:46:19 55° SW 06:46:24 55° SW
Cosmos 2237 Rocket 3.7 06:47:25 10° WNW 06:52:23 30° SW 06:52:55 30° SW
Cosmos 1943 Rocket 4.1 06:47:13 10° SSW 06:48:58 21° SSW 06:48:58 21° SSW
Cosmos 2369 Rocket 4.3 06:48:59 10° SSW 06:50:30 19° SSW 06:50:30 19° SSW
ATLAS CENTAUR R/B 4.5 06:54:26 10° SW 06:54:46 12° SSW 06:54:46 12° SSW
SL-16 R/B 4.0 07:02:02 10° NW 07:04:24 25° NW 07:04:24 25° NW
BREEZE M DEB (TANK) 4.5 06:58:21 10° WSW 07:13:13 58° WNW 07:13:13 58° WNW
ATLAS 2AS CENTAUR R/B 4.3 07:35:14 10° SW 07:38:34 29° WSW 07:38:34 29° WSW
